Location: Dillon
(41.1766°N, 107.0923°W)
Time: 07:47:33
(UTC+00:00)

QB50P2 - Pass Details

Date: 02 July 2022
Orbit: 590 x 605 km, 97.9° (Epoch: 17 August)

Event Time Altitude Azimuth Distance (km) Brightness Sun altitude
Rises 08:19:51 0° 16° (NNE) 2,860 ? -23.9°
Reaches altitude 10° 08:22:03 10° 19° (NNE) 1,955 ? -23.8°
Maximum altitude 08:26:17 63° 101° (ESE) 675 ? -23.6°
Enters shadow 08:26:26 63° 115° (ESE) 678 ? -23.5°
